User: anonymous   Login
Location: Ostrava
(49.8330°N, 18.2830°E)
Time: 01:42:24
(UTC+02:00)
Language:

Vanguard 2 Rocket - Orbit

View from above orbital plane
View from above orbital plane
View from above satellite
View from above satellite

Ground track
Ground track

The orbit data is extracted from the following two-line orbital elements,

1 00012U 59001B   16181.88549191 -.00000076  00000-0 -42662-4 0  9999
2 00012  32.9013  18.1832 1666930  21.4801 344.8137 11.43982144356600
Epoch (UTC): 29 June 2016 21:15:06
Eccentricity: 0.1666930
inclination: 32.9013°
perigee height: 555 km
apogee height: 3329 km
right ascension of ascending node: 18.1832°
argument of perigee: 21.4801°
revolutions per day: 11.43982144
mean anomaly at epoch: 344.8137°
orbit number at epoch: 35660

The dashed part of the orbit path shows where the satellite is in the earth's shadow,  

DLR